Tracking 26922 objects as of 1-Feb-2023
HD Live streaming from Space Station
objects crossing your sky now

COSMOS 883

Track COSMOS 883 now!
10-day predictions
COSMOS 883 is classified as:


NORAD ID: 9610
Int'l Code: 1976-122A
Perigee: 958.5 km
Apogee: 1,011.0 km
Inclination: 83.0 °
Period: 104.6 minutes
Semi major axis: 7355 km
RCS: 1.9565 m2 (large)
Launch date: December 15, 1976
Source: Commonwealth of Independent States (former USSR) (CIS)
Launch site: PLESETSK MISSILE AND SPACE COMPLEX (PKMTR)
Your satellite tracking list
Your tracking list is empty




NASA's NSSDC Master Catalog

Two Line Element Set (TLE):
1  9610U 76122A   23031.64297672  .00000046  00000-0  30979-4 0  9998
2  9610  82.9517  98.3933 0035678  62.5411 297.9366 13.76150024315687
Source of the keplerian elements: AFSPC